• Join FlightAware (Why Join?)
  • Login
  • US Flag GB Flag 
21:59 EDT


 

Airport Tracker/Info


-or-


 

Live Flight TrackerFlight Track Log ✈ N556VP ✈ 28-Apr-2013 ✈ KSAF - KMAF

Flight Track Log - Related Links

Times and Time Zones

All times are in EDT time to prevent confusion due to time zone crossing. See the N556VP flight status page for this flight to view local times or setup timezone preferences in your user account.

Time Position Orientation Groundspeed Altitude Reporting Facility
EDT Latitude Longitude Course Direction KTS MPH feet Rate Location/Type
15:31 35.5325 -106.0456 144° Southeast 265 305 12,200  Level Albuquerque Center
15:32 35.4753 -105.9892 141° Southeast 262 302 16,300 3,180 Climbing Albuquerque Center
15:33 35.3931 -105.9086 141° Southeast 307 353 18,800 1,980 Climbing Albuquerque Center
15:34 35.3156 -105.8314 141° Southeast 356 410 20,400 1,920 Climbing Albuquerque Center
15:35 35.0456 -105.4487 134° Southeast  Level FlightAware Approximate
15:35 35.2314 -105.7414 139° Southeast 385 443 22,800  Level Albuquerque Center
15:36 35.1381 -105.6367 137° Southeast 389 448 26,000 1,980 Climbing Albuquerque Center
15:37 35.0611 -105.5461 136° Southeast 384 442 27,000 480 Climbing Albuquerque Center
15:38 34.9728 -105.4456 137° Southeast 412 474 27,000  Level Albuquerque Center
15:40 34.8978 -105.3514 134° Southeast  Level FlightAware Approximate
15:40 34.7889 -105.2417 134° Southeast 439 505 27,000  Level Albuquerque Center
15:41 34.7003 -105.1419 137° Southeast 435 501 27,000  Level Albuquerque Center
15:43 34.6114 -105.0433 138° Southeast 432 497 27,000  Level Albuquerque Center
15:44 34.5061 -104.9267 138° Southeast 434 499 27,000  Level Albuquerque Center
15:45 34.4167 -104.8269 137° Southeast 435 501 27,000  Level Albuquerque Center
15:46 34.3278 -104.7292 138° Southeast 431 496 27,000  Level Albuquerque Center
15:47 34.2394 -104.6303 137° Southeast 431 496 27,000  Level Albuquerque Center
15:48 34.1503 -104.5358 139° Southeast 424 488 27,000  Level Albuquerque Center
15:49 34.0625 -104.4397 138° Southeast 422 486 27,000  Level Albuquerque Center
15:50 33.9603 -104.3306 138° Southeast 420 483 27,000  Level Albuquerque Center
15:51 33.8711 -104.2331 138° Southeast 429 494 27,000  Level Albuquerque Center
15:52 33.7775 -104.1303 138° Southeast 425 489 27,000  Level Albuquerque Center
15:53 33.6886 -104.0331 138° Southeast 431 496 27,000  Level Albuquerque Center
15:54 33.5983 -103.9369 138° Southeast 433 498 27,000  Level Albuquerque Center
15:55 33.5011 -103.8356 139° Southeast 431 496 27,000  Level Albuquerque Center
15:56 33.4117 -103.7400 138° Southeast 431 496 27,000  Level Albuquerque Center
15:57 33.3272 -103.6453 137° Southeast 427 491 27,000  Level Albuquerque Center
15:58 33.2403 -103.5467 136° Southeast 429 494 27,000  Level Albuquerque Center
15:59 33.1553 -103.4475 136° Southeast 428 493 27,000  Level Albuquerque Center
16:00 33.0719 -103.3428 134° Southeast 432 497 27,000  Level Albuquerque Center
16:01 32.9828 -103.2119 129° Southeast 426 490 27,000 -300 Level Albuquerque Center
16:02 32.9033 -103.1056 132° Southeast 430 495 26,400 -1,440 Descending Albuquerque Center
16:03 32.8186 -103.0097 136° Southeast 424 488 24,100 -2,280 Descending Albuquerque Center
16:04 32.7389 -102.9150 135° Southeast 416 479 21,800 -2,280 Descending Albuquerque Center
16:05 32.6661 -102.8219 133° Southeast 402 463 19,500 -2,220 Descending Albuquerque Center
16:06 32.6053 -102.7447 133° Southeast 363 418 17,400 -2,220 Descending Fort Worth Center
16:07 32.5547 -102.6556 124° Southeast 336 387 15,200 -1,920 Descending Fort Worth Center
16:08 32.5019 -102.5661 125° Southeast 331 381 13,600 -1,500 Descending Fort Worth Center
16:09 32.4244 -102.5225 155° Southeast 319 367 12,200 -1,200 Descending Fort Worth Center
16:10 32.3514 -102.4742 151° Southeast 305 351 11,300 -900 Descending Fort Worth Center
16:11 32.2819 -102.4358 155° Southeast 295 339 10,500 -960 Descending Fort Worth Center
16:12 32.2189 -102.3956 152° Southeast 276 318 9,400 -1,380 Descending Fort Worth Center
16:13 32.1497 -102.3500 151° Southeast 264 304 7,800 -1,500 Descending Fort Worth Center
16:14 32.1011 -102.3131 147° Southeast 252 290 6,400 -1,320 Descending Fort Worth Center
16:15 32.0506 -102.2711 145° Southeast 231 266 5,200 -1,140 Descending Fort Worth Center
16:16 32.0103 -102.2272 137° Southeast 217 250 4,200 -1,080 Descending Fort Worth Center
16:17 31.9694 -102.2081 158° South 184 212 3,100 -1,140 Descending Fort Worth Center
16:22 31.9425 -102.2019 143° Southeast  Level Estimated
16:29 31.9425 -102.2019 313° West  Level Estimated